Satellite: MET-3/5
Catalog number: 21655
Epoch time:      10146.90895265
Element set:    0822
Inclination:      082.5568 deg
RA of node:       323.6705 deg
Eccentricity:    0.0014634
Arg of perigee:   046.3838 deg
Mean anomaly:     313.8517 deg
Mean motion:   13.17025370 rev/day
Decay rate:        5.1e-07 rev/day^2
Epoch rev:           90287
Checksum:              305

Satellite: MET-2/21
Catalog number: 22782
Epoch time:      10146.81447325
Element set:     786
Inclination:      082.5463 deg
RA of node:       269.3945 deg
Eccentricity:    0.0023905
Arg of perigee:   101.9513 deg
Mean anomaly:     258.4332 deg
Mean motion:   13.83645716 rev/day
Decay rate:        6.8e-07 rev/day^2
Epoch rev:           84512
Checksum:              314

Satellite: OKEAN-4
Catalog number: 23317
Epoch time:      10147.67258392
Element set:     242
Inclination:      082.5418 deg
RA of node:       013.0104 deg
Eccentricity:    0.0020952
Arg of perigee:   313.5844 deg
Mean anomaly:     046.3643 deg
Mean motion:   14.82819140 rev/day
Decay rate:       2.37e-06 rev/day^2
Epoch rev:           84341
Checksum:              272

Satellite: NOAA-14
Catalog number: 23455
Epoch time:      10147.54752268
Element set:      69
Inclination:      098.8778 deg
RA of node:       228.4327 deg
Eccentricity:    0.0008720
Arg of perigee:   298.0431 deg
Mean anomaly:     061.9864 deg
Mean motion:   14.13786300 rev/day
Decay rate:       -3.3e-07 rev/day^2
Epoch rev:           79458
Checksum:              328

Satellite: NOAA-15
Catalog number: 25338
Epoch time:      10147.22731928
Element set:     389
Inclination:      098.6168 deg
RA of node:       134.5289 deg
Eccentricity:    0.0011428
Arg of perigee:   132.1503 deg
Mean anomaly:     228.0683 deg
Mean motion:   14.24828416 rev/day
Decay rate:        8.0e-07 rev/day^2
Epoch rev:           62576
Checksum:              309

Satellite: RESURS
Catalog number: 25394
Epoch time:      10146.70933259
Element set:     512
Inclination:      098.3054 deg
RA of node:       165.9573 deg
Eccentricity:    0.0000747
Arg of perigee:   331.0800 deg
Mean anomaly:     029.0338 deg
Mean motion:   14.24201293 rev/day
Decay rate:       -1.8e-07 rev/day^2
Epoch rev:           61729
Checksum:              277

Satellite: FENGYUN1
Catalog number: 25730
Epoch time:      10146.77667299
Element set:      51
Inclination:      098.7859 deg
RA of node:       112.2902 deg
Eccentricity:    0.0023750
Arg of perigee:   333.3872 deg
Mean anomaly:     026.6075 deg
Mean motion:   14.08211275 rev/day
Decay rate:      -5.31e-06 rev/day^2
Epoch rev:           56867
Checksum:              306

Satellite: OKEAN-0
Catalog number: 25860
Epoch time:      10147.77448488
Element set:       3
Inclination:      097.8300 deg
RA of node:       121.1679 deg
Eccentricity:    0.0001579
Arg of perigee:   099.9628 deg
Mean anomaly:     260.1758 deg
Mean motion:   14.73640995 rev/day
Decay rate:        5.2e-07 rev/day^2
Epoch rev:           58389
Checksum:              334

Satellite: NOAA-16
Catalog number: 26536
Epoch time:      10147.18912389
Element set:     867
Inclination:      099.1702 deg
RA of node:       164.1622 deg
Eccentricity:    0.0011075
Arg of perigee:   040.6267 deg
Mean anomaly:     319.5781 deg
Mean motion:   14.12558822 rev/day
Decay rate:       -2.0e-07 rev/day^2
Epoch rev:           49886
Checksum:              314

Satellite: NOAA-17
Catalog number: 27453
Epoch time:      10147.48120472
Element set:     869
Inclination:      098.4324 deg
RA of node:       198.7563 deg
Eccentricity:    0.0011462
Arg of perigee:   193.3935 deg
Mean anomaly:     166.6949 deg
Mean motion:   14.24160181 rev/day
Decay rate:        1.2e-07 rev/day^2
Epoch rev:           41175
Checksum:              310

Satellite: NOAA-18
Catalog number: 28654
Epoch time:      10147.45779732
Element set:     353
Inclination:      098.9484 deg
RA of node:       093.7823 deg
Eccentricity:    0.0015179
Arg of perigee:   110.5013 deg
Mean anomaly:     249.7772 deg
Mean motion:   14.11359171 rev/day
Decay rate:        3.3e-07 rev/day^2
Epoch rev:           25851
Checksum:              319

Satellite: NOAA-19
Catalog number: 33591
Epoch time:      10147.51217895
Element set:     550
Inclination:      098.7874 deg
RA of node:       090.0737 deg
Eccentricity:    0.0014121
Arg of perigee:   352.3049 deg
Mean anomaly:     007.7881 deg
Mean motion:   14.11054839 rev/day
Decay rate:      -1.14e-06 rev/day^2
Epoch rev:            6699
Checksum:              310

/EX
SB KEPS @ AMSAT  $ORB10147.M
Orbital Elements  10147.MISC

HR AMSAT ORBITAL ELEMENTS FOR MANNED AND MISCELLANEOUS SATELLITES
FROM WA5QGD FORT WORTH,TX May 27, 2010
Send Subscribe/unsubscribe to KEPS at http://www.amsat.org/mailman/listinfo/kep
BID: ORB10147.M
TO ALL RADIO AMATEURS BT

Satellite: HUBBLE
Catalog number: 20580
Epoch time:      10146.96954202
Element set:     572
Inclination:      028.4698 deg
RA of node:       018.3684 deg
Eccentricity:    0.0003133
Arg of perigee:   332.1946 deg
Mean anomaly:     027.8471 deg
Mean motion:   15.00976129 rev/day
Decay rate:       3.83e-06 rev/day^2
Epoch rev:           90156
Checksum:              296

